Retour au catalogue

METEOR 2-2

ActifMétéoPO
NORAD 9661·PAYLOAD·🇷🇺 Russia

Lancé Jan 6, 1977 depuis Plesetsk Cosmodrome

Loading…

Prochains Passages (prochaines 24 heures)

TLE

FraisSource: Space-Track

Époque: Sep 14, 2026, 14:12 UTC

1 09661U 77002A   26257.59228274  .00000005  00000-0 -48370-5 0  9992
2 09661  81.2685   8.0087 0011650 101.1841 259.0637 14.04242858542883

Suivez METEOR 2-2 en temps réel avec AllMySat

Download on the App Store